| time (UTC) | temp F | wind direction | speed MPH | gust MPH | rain 1hr in | rain 24hr in | rain mn in | humidity % | barometer mb |
| 20260905135520 | 69 | 23 | 1.0 | 3.0 | 0.00 | 0.00 | 0.00 | 78 | 1011.4 |
| 20260905134520 | 69 | 338 | 2.0 | 5.0 | 0.00 | 0.00 | 0.00 | 77 | 1011.6 |
| 20260905133520 | 69 | 23 | 3.0 | 6.0 | 0.00 | 0.00 | 0.00 | 78 | 1011.5 |
| 20260905132520 | 69 | 23 | 3.0 | 8.0 | 0.00 | 0.00 | 0.00 | 78 | 1011.6 |
| 20260905131520 | 69 | 45 | 1.0 | 3.0 | 0.00 | 0.00 | 0.00 | 78 | 1011.6 |
| 20260905130520 | 69 | 0.0 | 2.0 | 0.00 | 0.00 | 0.00 | 78 | 1011.6 | |
| 20260905125519 | 67 | 0.0 | 1.0 | 0.00 | 0.00 | 0.00 | 82 | 1011.7 | |
| 20260905124521 | 66 | 158 | 2.0 | 3.0 | 0.00 | 0.00 | 0.00 | 84 | 1011.9 |
| 20260905123519 | 65 | 158 | 2.0 | 4.0 | 0.00 | 0.00 | 0.00 | 85 | 1011.8 |
| 20260905122520 | 63 | 203 | 1.0 | 4.0 | 0.00 | 0.00 | 0.00 | 87 | 1011.8 |
| 20260905121520 | 63 | 0.0 | 1.0 | 0.00 | 0.00 | 0.00 | 88 | 1011.7 | |
| 20260905120519 | 62 | 158 | 1.0 | 2.0 | 0.00 | 0.00 | 0.00 | 88 | 1011.7 |
| 20260905115520 | 62 | 203 | 1.0 | 3.0 | 0.00 | 0.00 | 0.00 | 89 | 1011.5 |
| 20260905114523 | 62 | 180 | 1.0 | 3.0 | 0.00 | 0.00 | 0.00 | 89 | 1011.4 |
| 20260905113521 | 61 | 158 | 1.0 | 2.0 | 0.00 | 0.00 | 0.00 | 90 | 1011.3 |
| 20260905112521 | 61 | 158 | 2.0 | 4.0 | 0.00 | 0.00 | 0.00 | 90 | 1011.3 |
| 20260905111521 | 60 | 158 | 1.0 | 3.0 | 0.00 | 0.00 | 0.00 | 90 | 1011.2 |
| 20260905110521 | 60 | 180 | 2.0 | 4.0 | 0.00 | 0.00 | 0.00 | 90 | 1011.1 |
| 20260905105527 | 60 | 180 | 1.0 | 4.0 | 0.00 | 0.00 | 0.00 | 90 | 1011.0 |
| 20260905104521 | 60 | 180 | 2.0 | 3.0 | 0.00 | 0.00 | 0.00 | 90 | 1010.7 |
| 20260905103521 | 60 | 158 | 2.0 | 4.0 | 0.00 | 0.00 | 0.00 | 90 | 1010.7 |
| 20260905102521 | 60 | 158 | 1.0 | 2.0 | 0.00 | 0.00 | 0.00 | 90 | 1010.5 |
| 20260905101528 | 60 | 158 | 3.0 | 4.0 | 0.00 | 0.00 | 0.00 | 90 | 1010.5 |
| 20260905100521 | 60 | 180 | 2.0 | 4.0 | 0.00 | 0.00 | 0.00 | 89 | 1010.5 |
| 20260905095521 | 61 | 180 | 2.0 | 4.0 | 0.00 | 0.00 | 0.00 | 89 | 1010.5 |
| 20260905094541 | 61 | 158 | 1.0 | 2.0 | 0.00 | 0.00 | 0.00 | 89 | 1010.4 |
| 20260905093521 | 61 | 203 | 1.0 | 3.0 | 0.00 | 0.00 | 0.00 | 88 | 1010.4 |
| 20260905092542 | 61 | 180 | 1.0 | 1.0 | 0.00 | 0.00 | 0.00 | 88 | 1010.4 |
| 20260905091521 | 62 | 180 | 1.0 | 3.0 | 0.00 | 0.00 | 0.00 | 87 | 1010.4 |
| 20260905090521 | 62 | 0.0 | 0.0 | 0.00 | 0.00 | 0.00 | 87 | 1010.5 | |
| 20260905085521 | 62 | 0.0 | 0.0 | 0.00 | 0.00 | 0.00 | 85 | 1010.5 | |
| 20260905084541 | 63 | 0.0 | 0.0 | 0.00 | 0.00 | 0.00 | 83 | 1010.5 | |
| 20260905083521 | 64 | 0.0 | 0.0 | 0.00 | 0.00 | 0.00 | 82 | 1010.4 | |
| 20260905082541 | 65 | 0.0 | 2.0 | 0.00 | 0.00 | 0.00 | 82 | 1010.5 | |
| 20260905081521 | 65 | 0.0 | 1.0 | 0.00 | 0.00 | 0.00 | 82 | 1010.6 | |
| 20260905080521 | 65 | 0.0 | 0.0 | 0.00 | 0.00 | 0.00 | 82 | 1010.6 | |
| 20260905075521 | 65 | 0.0 | 2.0 | 0.00 | 0.00 | 0.00 | 82 | 1010.6 | |
| 20260905074521 | 66 | 0.0 | 1.0 | 0.00 | 0.00 | 0.00 | 81 | 1010.5 | |
| 20260905073521 | 66 | 293 | 1.0 | 2.0 | 0.00 | 0.00 | 0.00 | 81 | 1010.4 |
| 20260905072521 | 66 | 0.0 | 1.0 | 0.00 | 0.00 | 0.00 | 81 | 1010.5 | |
| 20260905071521 | 66 | 0.0 | 1.0 | 0.00 | 0.00 | 0.00 | 80 | 1010.6 | |
| 20260905070541 | 67 | 0.0 | 2.0 | 0.00 | 0.00 | 0.00 | 80 | 1010.8 | |
| 20260905065521 | 67 | 0.0 | 1.0 | 0.00 | 0.00 | 0.00 | 80 | 1010.7 | |
| 20260905064520 | 68 | 0.0 | 2.0 | 0.00 | 0.00 | 0.00 | 79 | 1010.7 | |
| 20260905063520 | 68 | 0.0 | 1.0 | 0.00 | 0.00 | 0.00 | 79 | 1010.7 | |
| 20260905062522 | 68 | 0.0 | 2.0 | 0.00 | 0.00 | 0.00 | 79 | 1010.7 | |
| 20260905061520 | 69 | 293 | 1.0 | 2.0 | 0.00 | 0.00 | 0.00 | 78 | 1010.7 |
| 20260905060701 | 69 | 0.0 | 2.0 | 0.00 | 0.00 | 0.00 | 79 | 1010.8 | |
| 20260905055520 | 69 | 23 | 1.0 | 2.0 | 0.00 | 0.00 | 0.00 | 79 | 1010.8 |
| 20260905054520 | 69 | 0.0 | 2.0 | 0.00 | 0.00 | 0.00 | 79 | 1010.8 | |
| 20260905053522 | 69 | 0.0 | 2.0 | 0.00 | 0.00 | 0.00 | 78 | 1010.9 | |
| 20260905052521 | 69 | 0.0 | 2.0 | 0.00 | 0.00 | 0.00 | 79 | 1011.0 | |
| 20260905051520 | 69 | 315 | 1.0 | 3.0 | 0.00 | 0.00 | 0.00 | 79 | 1011.0 |
| 20260905050520 | 69 | 0.0 | 2.0 | 0.00 | 0.00 | 0.00 | 79 | 1011.0 | |
| 20260905045521 | 70 | 248 | 1.0 | 2.0 | 0.00 | 0.00 | 0.00 | 79 | 1011.1 |
| 20260905044540 | 70 | 293 | 1.0 | 4.0 | 0.00 | 0.00 | 0.00 | 79 | 1011.1 |
| 20260905043600 | 70 | 248 | 1.0 | 2.0 | 0.00 | 0.00 | 0.00 | 79 | 1011.0 |
| 20260905042520 | 69 | 338 | 1.0 | 3.0 | 0.00 | 0.00 | 0.00 | 80 | 1011.0 |
| 20260905041520 | 69 | 0 | 1.0 | 3.0 | 0.00 | 0.00 | 0.00 | 80 | 1011.0 |
| 20260905040522 | 70 | 0 | 1.0 | 3.0 | 0.00 | 0.00 | 0.00 | 79 | 1010.9 |
| 20260905035540 | 69 | 0.0 | 2.0 | 0.00 | 0.00 | 0.00 | 80 | 1010.9 | |
| 20260905034520 | 69 | 0.0 | 1.0 | 0.00 | 0.00 | 0.00 | 80 | 1011.0 | |
| 20260905033520 | 68 | 248 | 1.0 | 2.0 | 0.00 | 0.00 | 0.00 | 81 | 1011.0 |
| 20260905032520 | 68 | 0.0 | 1.0 | 0.00 | 0.00 | 0.00 | 80 | 1011.0 | |
| 20260905031520 | 68 | 225 | 1.0 | 4.0 | 0.00 | 0.00 | 0.00 | 80 | 1010.8 |
| 20260905030521 | 68 | 158 | 1.0 | 2.0 | 0.00 | 0.00 | 0.00 | 79 | 1010.6 |
| 20260905025520 | 68 | 180 | 1.0 | 3.0 | 0.00 | 0.00 | 0.00 | 78 | 1010.8 |
| 20260905024520 | 68 | 0.0 | 2.0 | 0.00 | 0.00 | 0.00 | 78 | 1010.9 | |
| 20260905023520 | 68 | 180 | 1.0 | 2.0 | 0.00 | 0.00 | 0.00 | 77 | 1011.0 |
| 20260905022520 | 68 | 158 | 1.0 | 2.0 | 0.00 | 0.00 | 0.00 | 76 | 1011.0 |
| 20260905021520 | 69 | 0.0 | 1.0 | 0.00 | 0.00 | 0.00 | 75 | 1011.0 | |
| 20260905020519 | 69 | 248 | 1.0 | 3.0 | 0.00 | 0.00 | 0.00 | 74 | 1011.1 |
| 20260905015519 | 69 | 225 | 1.0 | 2.0 | 0.00 | 0.00 | 0.00 | 73 | 1011.2 |
| 20260905014519 | 70 | 0.0 | 0.0 | 0.00 | 0.00 | 0.00 | 72 | 1011.2 | |
| 20260905013521 | 70 | 0.0 | 1.0 | 0.00 | 0.00 | 0.00 | 72 | 1011.2 | |
| 20260905012519 | 70 | 0.0 | 1.0 | 0.00 | 0.00 | 0.00 | 71 | 1011.3 | |
| 20260905011522 | 71 | 248 | 1.0 | 2.0 | 0.00 | 0.00 | 0.00 | 69 | 1011.2 |
| 20260905010521 | 71 | 248 | 1.0 | 1.0 | 0.00 | 0.00 | 0.00 | 68 | 1011.2 |
| 20260905005521 | 72 | 225 | 1.0 | 2.0 | 0.00 | 0.00 | 0.00 | 67 | 1011.2 |
| 20260905004521 | 73 | 248 | 1.0 | 2.0 | 0.00 | 0.00 | 0.00 | 65 | 1011.2 |
| 20260905003521 | 74 | 248 | 1.0 | 3.0 | 0.00 | 0.00 | 0.00 | 64 | 1011.0 |
| 20260905002601 | 74 | 315 | 1.0 | 3.0 | 0.00 | 0.00 | 0.00 | 63 | 1011.0 |
| 20260905001521 | 74 | 315 | 1.0 | 3.0 | 0.00 | 0.00 | 0.00 | 63 | 1010.9 |
| 20260905000521 | 74 | 293 | 1.0 | 4.0 | 0.00 | 0.00 | 0.00 | 64 | 1010.8 |
| 20260904235541 | 74 | 338 | 2.0 | 4.0 | 0.00 | 0.00 | 0.00 | 63 | 1010.8 |
| 20260904234521 | 74 | 0 | 1.0 | 3.0 | 0.00 | 0.00 | 0.00 | 63 | 1010.8 |
| 20260904233601 | 74 | 338 | 4.0 | 6.0 | 0.00 | 0.00 | 0.00 | 63 | 1010.8 |
| 20260904232521 | 74 | 338 | 3.0 | 6.0 | 0.00 | 0.00 | 0.00 | 61 | 1010.7 |
| 20260904231524 | 74 | 338 | 4.0 | 7.0 | 0.00 | 0.00 | 0.00 | 61 | 1010.7 |
| 20260904230521 | 75 | 23 | 4.0 | 7.0 | 0.00 | 0.00 | 0.00 | 60 | 1010.7 |
| 20260904225522 | 75 | 23 | 4.0 | 6.0 | 0.00 | 0.00 | 0.00 | 59 | 1010.5 |
| 20260904224521 | 76 | 338 | 4.0 | 7.0 | 0.00 | 0.00 | 0.00 | 56 | 1010.6 |
| 20260904223521 | 76 | 338 | 6.0 | 11.0 | 0.00 | 0.00 | 0.00 | 57 | 1010.5 |
| 20260904222521 | 77 | 23 | 6.0 | 11.0 | 0.00 | 0.00 | 0.00 | 56 | 1010.3 |
| 20260904221541 | 77 | 338 | 6.0 | 13.0 | 0.00 | 0.00 | 0.00 | 55 | 1010.3 |
| 20260904220521 | 77 | 338 | 8.0 | 12.0 | 0.00 | 0.00 | 0.00 | 54 | 1010.4 |
| 20260904215521 | 77 | 338 | 7.0 | 14.0 | 0.00 | 0.00 | 0.00 | 55 | 1010.4 |
| 20260904214521 | 78 | 338 | 7.0 | 14.0 | 0.00 | 0.00 | 0.00 | 55 | 1010.6 |
| 20260904213521 | 78 | 23 | 4.0 | 7.0 | 0.00 | 0.00 | 0.00 | 56 | 1010.5 |
| 20260904212521 | 78 | 23 | 6.0 | 12.0 | 0.00 | 0.00 | 0.00 | 55 | 1010.4 |
| 20260904211521 | 78 | 338 | 7.0 | 12.0 | 0.00 | 0.00 | 0.00 | 56 | 1010.6 |
| 20260904210521 | 78 | 338 | 8.0 | 16.0 | 0.00 | 0.00 | 0.00 | 55 | 1010.6 |
| 20260904205541 | 78 | 338 | 6.0 | 12.0 | 0.00 | 0.00 | 0.00 | 55 | 1010.7 |
| 20260904204522 | 79 | 338 | 7.0 | 16.0 | 0.00 | 0.00 | 0.00 | 53 | 1010.7 |
| 20260904203521 | 79 | 338 | 9.0 | 17.0 | 0.00 | 0.00 | 0.00 | 51 | 1010.8 |
| 20260904202520 | 79 | 338 | 9.0 | 18.0 | 0.00 | 0.00 | 0.00 | 52 | 1010.9 |
| 20260904201521 | 79 | 338 | 6.0 | 12.0 | 0.00 | 0.00 | 0.00 | 53 | 1011.0 |
| 20260904200522 | 79 | 293 | 5.0 | 13.0 | 0.00 | 0.00 | 0.00 | 54 | 1011.0 |
| 20260904195541 | 80 | 293 | 7.0 | 16.0 | 0.00 | 0.00 | 0.00 | 51 | 1011.1 |
| 20260904194521 | 80 | 315 | 6.0 | 12.0 | 0.00 | 0.00 | 0.00 | 54 | 1011.1 |
| 20260904193600 | 79 | 293 | 5.0 | 10.0 | 0.00 | 0.00 | 0.00 | 53 | 1011.2 |
| 20260904192520 | 79 | 293 | 8.0 | 15.0 | 0.00 | 0.00 | 0.00 | 54 | 1011.4 |
| 20260904191520 | 79 | 338 | 7.0 | 13.0 | 0.00 | 0.00 | 0.00 | 53 | 1011.4 |
| 20260904190520 | 79 | 293 | 7.0 | 14.0 | 0.00 | 0.00 | 0.00 | 54 | 1011.4 |
| 20260904185520 | 79 | 293 | 7.0 | 13.0 | 0.00 | 0.00 | 0.00 | 54 | 1011.4 |
| 20260904184521 | 79 | 338 | 6.0 | 12.0 | 0.00 | 0.00 | 0.00 | 55 | 1011.5 |
| 20260904183520 | 79 | 293 | 7.0 | 13.0 | 0.00 | 0.00 | 0.00 | 55 | 1011.6 |
| 20260904182520 | 78 | 315 | 4.0 | 9.0 | 0.00 | 0.00 | 0.00 | 56 | 1011.5 |
| 20260904181540 | 78 | 338 | 6.0 | 12.0 | 0.00 | 0.00 | 0.00 | 54 | 1011.6 |
| 20260904180540 | 79 | 338 | 6.0 | 13.0 | 0.00 | 0.00 | 0.00 | 54 | 1011.6 |
| 20260904175520 | 80 | 293 | 6.0 | 13.0 | 0.00 | 0.00 | 0.00 | 53 | 1011.8 |
| 20260904174520 | 80 | 293 | 6.0 | 11.0 | 0.00 | 0.00 | 0.00 | 52 | 1011.8 |
| 20260904173620 | 79 | 293 | 6.0 | 12.0 | 0.00 | 0.00 | 0.00 | 54 | 1011.8 |
| 20260904172520 | 78 | 293 | 5.0 | 11.0 | 0.00 | 0.00 | 0.00 | 56 | 1011.8 |
| 20260904171600 | 80 | 293 | 5.0 | 9.0 | 0.00 | 0.00 | 0.00 | 53 | 1011.9 |
| 20260904170540 | 78 | 338 | 8.0 | 12.0 | 0.00 | 0.00 | 0.00 | 57 | 1011.9 |
| 20260904165520 | 78 | 338 | 8.0 | 15.0 | 0.00 | 0.00 | 0.00 | 54 | 1012.1 |
| 20260904164520 | 77 | 338 | 9.0 | 15.0 | 0.00 | 0.00 | 0.00 | 58 | 1012.0 |
| 20260904163520 | 77 | 338 | 7.0 | 14.0 | 0.00 | 0.00 | 0.00 | 58 | 1011.9 |
| 20260904162520 | 78 | 338 | 7.0 | 14.0 | 0.00 | 0.00 | 0.00 | 59 | 1012.0 |
| 20260904161520 | 77 | 315 | 5.0 | 10.0 | 0.00 | 0.00 | 0.00 | 62 | 1012.1 |
| 20260904160519 | 77 | 338 | 5.0 | 11.0 | 0.00 | 0.00 | 0.00 | 61 | 1011.9 |
| 20260904155522 | 77 | 338 | 8.0 | 13.0 | 0.00 | 0.00 | 0.00 | 61 | 1012.0 |
| 20260904154522 | 78 | 315 | 5.0 | 12.0 | 0.00 | 0.00 | 0.00 | 60 | 1012.0 |
| 20260904153522 | 78 | 338 | 6.0 | 12.0 | 0.00 | 0.00 | 0.00 | 60 | 1011.9 |
| 20260904152521 | 76 | 23 | 4.0 | 9.0 | 0.00 | 0.00 | 0.00 | 64 | 1012.0 |
| 20260904151521 | 77 | 338 | 4.0 | 11.0 | 0.00 | 0.00 | 0.00 | 62 | 1012.0 |
| 20260904150521 | 77 | 338 | 3.0 | 7.0 | 0.00 | 0.00 | 0.00 | 64 | 1012.0 |
| 20260904145523 | 77 | 315 | 3.0 | 6.0 | 0.00 | 0.00 | 0.00 | 65 | 1012.1 |
| 20260904144521 | 76 | 293 | 3.0 | 6.0 | 0.00 | 0.00 | 0.00 | 66 | 1012.1 |
| 20260904143521 | 76 | 338 | 4.0 | 7.0 | 0.00 | 0.00 | 0.00 | 68 | 1012.1 |
| 20260904142521 | 76 | 248 | 3.0 | 6.0 | 0.00 | 0.00 | 0.00 | 71 | 1012.0 |
| 20260904141642 | 75 | 293 | 2.0 | 5.0 | 0.00 | 0.00 | 0.00 | 73 | 1012.1 |
| 20260904140543 | 73 | 338 | 1.0 | 3.0 | 0.00 | 0.00 | 0.00 | 77 | 1012.2 |